| time (UTC) | temp F | wind direction | speed MPH | gust MPH | rain 1hr in | rain 24hr in | rain mn in | humidity % | barometer mb |
| 20260906133209 | 69 | 207 | 1.0 | 2.0 | 0.00 | 0.00 | 0.00 | 87 | 1018.1 |
| 20260906132137 | 67 | 139 | 1.0 | 2.0 | 0.00 | 0.00 | 0.00 | 89 | 1018.1 |
| 20260906131135 | 66 | 225 | 1.0 | 2.0 | 0.00 | 0.00 | 0.00 | 97 | 1017.7 |
| 20260906130134 | 65 | 225 | 0.0 | 0.0 | 0.00 | 0.00 | 0.00 | 97 | 1017.7 |
| 20260906125133 | 63 | 225 | 0.0 | 2.0 | 0.00 | 0.00 | 0.00 | 97 | 1017.6 |
| 20260906124132 | 62 | 225 | 0.0 | 2.0 | 0.00 | 0.00 | 0.00 | 97 | 1017.6 |
| 20260906123100 | 59 | 225 | 0.0 | 2.0 | 0.00 | 0.00 | 0.00 | 97 | 1017.2 |
| 20260906122100 | 57 | 225 | 0.0 | 0.0 | 0.00 | 0.00 | 0.00 | 97 | 1017.2 |
| 20260906121059 | 56 | 225 | 0.0 | 0.0 | 0.00 | 0.00 | 0.00 | 97 | 1017.1 |
| 20260906120027 | 55 | 225 | 0.0 | 0.0 | 0.00 | 0.00 | 0.00 | 97 | 1016.8 |
| 20260906115026 | 55 | 225 | 0.0 | 0.0 | 0.00 | 0.00 | 0.00 | 97 | 1017.1 |
| 20260906114025 | 55 | 225 | 0.0 | 0.0 | 0.00 | 0.00 | 0.00 | 96 | 1016.8 |
| 20260906113023 | 55 | 225 | 0.0 | 0.0 | 0.00 | 0.00 | 0.00 | 96 | 1016.8 |
| 20260906112022 | 55 | 225 | 0.0 | 0.0 | 0.00 | 0.00 | 0.00 | 96 | 1016.8 |
| 20260906111021 | 55 | 225 | 0.0 | 0.0 | 0.00 | 0.00 | 0.00 | 96 | 1016.8 |
| 20260906110020 | 55 | 225 | 0.0 | 0.0 | 0.00 | 0.00 | 0.00 | 97 | 1016.5 |
| 20260906104917 | 55 | 225 | 0.0 | 0.0 | 0.00 | 0.00 | 0.00 | 96 | 1016.2 |
| 20260906103917 | 55 | 225 | 0.0 | 2.0 | 0.00 | 0.00 | 0.00 | 96 | 1016.2 |
| 20260906102916 | 56 | 225 | 0.0 | 2.0 | 0.00 | 0.00 | 0.00 | 96 | 1016.6 |
| 20260906101915 | 56 | 225 | 1.0 | 2.0 | 0.00 | 0.00 | 0.00 | 97 | 1016.6 |
| 20260906100844 | 56 | 230 | 1.0 | 2.0 | 0.00 | 0.00 | 0.00 | 97 | 1016.6 |
| 20260906095843 | 55 | 273 | 0.0 | 0.0 | 0.00 | 0.01 | 0.00 | 97 | 1016.6 |
| 20260906094811 | 55 | 273 | 0.0 | 1.0 | 0.00 | 0.01 | 0.00 | 96 | 1016.6 |
| 20260906093810 | 55 | 273 | 0.0 | 1.0 | 0.00 | 0.01 | 0.00 | 96 | 1016.2 |
| 20260906092809 | 55 | 273 | 0.0 | 1.0 | 0.00 | 0.01 | 0.00 | 96 | 1016.2 |
| 20260906091808 | 56 | 273 | 0.0 | 1.0 | 0.00 | 0.01 | 0.00 | 96 | 1016.3 |
| 20260906090808 | 56 | 273 | 0.0 | 0.0 | 0.00 | 0.01 | 0.00 | 96 | 1016.3 |
| 20260906085807 | 56 | 273 | 0.0 | 0.0 | 0.00 | 0.01 | 0.00 | 96 | 1016.3 |
| 20260906084806 | 56 | 273 | 0.0 | 1.0 | 0.00 | 0.01 | 0.00 | 96 | 1016.3 |
| 20260906083806 | 56 | 273 | 0.0 | 2.0 | 0.00 | 0.01 | 0.00 | 96 | 1016.3 |
| 20260906082805 | 56 | 278 | 2.0 | 2.0 | 0.00 | 0.01 | 0.00 | 96 | 1016.3 |
| 20260906081804 | 56 | 75 | 0.0 | 1.0 | 0.00 | 0.01 | 0.00 | 95 | 1016.0 |
| 20260906080803 | 56 | 75 | 0.0 | 0.0 | 0.00 | 0.01 | 0.00 | 95 | 1016.0 |
| 20260906075802 | 57 | 75 | 0.0 | 2.0 | 0.00 | 0.01 | 0.00 | 95 | 1016.0 |
| 20260906074800 | 57 | 75 | 0.0 | 2.0 | 0.00 | 0.01 | 0.00 | 95 | 1015.7 |
| 20260906073728 | 57 | 75 | 0.0 | 0.0 | 0.00 | 0.01 | 0.00 | 95 | 1015.7 |
| 20260906072727 | 58 | 75 | 0.0 | 0.0 | 0.00 | 0.01 | 0.00 | 95 | 1015.8 |
| 20260906071655 | 58 | 75 | 0.0 | 0.0 | 0.00 | 0.01 | 0.00 | 94 | 1015.8 |
| 20260906070654 | 58 | 75 | 0.0 | 0.0 | 0.00 | 0.01 | 0.00 | 95 | 1015.8 |
| 20260906065653 | 59 | 75 | 0.0 | 2.0 | 0.00 | 0.01 | 0.00 | 95 | 1015.8 |
| 20260906064652 | 59 | 75 | 0.0 | 2.0 | 0.00 | 0.01 | 0.00 | 96 | 1015.5 |
| 20260906063621 | 59 | 79 | 1.0 | 2.0 | 0.00 | 0.01 | 0.00 | 96 | 1015.5 |
| 20260906062620 | 59 | 71 | 0.0 | 2.0 | 0.00 | 0.01 | 0.00 | 96 | 1015.8 |
| 20260906061619 | 58 | 71 | 0.0 | 2.0 | 0.00 | 0.01 | 0.00 | 96 | 1015.8 |
| 20260906060618 | 59 | 46 | 1.0 | 1.0 | 0.00 | 0.01 | 0.00 | 95 | 1015.8 |
| 20260906055617 | 59 | 46 | 1.0 | 2.0 | 0.00 | 0.01 | 0.00 | 95 | 1015.8 |
| 20260906054616 | 59 | 51 | 1.0 | 4.0 | 0.00 | 0.01 | 0.00 | 96 | 1015.8 |
| 20260906053614 | 58 | 55 | 2.0 | 4.0 | 0.00 | 0.01 | 0.00 | 96 | 1015.4 |
| 20260906052613 | 58 | 40 | 1.0 | 2.0 | 0.00 | 0.01 | 0.00 | 95 | 1015.4 |
| 20260906051541 | 58 | 41 | 1.0 | 2.0 | 0.00 | 0.05 | 0.00 | 95 | 1015.7 |
| 20260906050540 | 58 | 16 | 0.0 | 0.0 | 0.00 | 0.07 | 0.00 | 95 | 1015.7 |
| 20260906045540 | 59 | 17 | 0.0 | 3.0 | 0.00 | 0.07 | 0.00 | 95 | 1015.8 |
| 20260906044508 | 59 | 16 | 1.0 | 3.0 | 0.00 | 0.07 | 0.00 | 94 | 1015.8 |
| 20260906043507 | 59 | 80 | 1.0 | 2.0 | 0.00 | 0.07 | 0.00 | 94 | 1015.8 |
| 20260906042506 | 59 | 80 | 0.0 | 1.0 | 0.00 | 0.07 | 0.00 | 95 | 1015.8 |
| 20260906041505 | 59 | 80 | 0.0 | 0.0 | 0.00 | 0.07 | 0.00 | 95 | 1015.8 |
| 20260906040432 | 59 | 80 | 0.0 | 0.0 | 0.00 | 0.09 | 0.00 | 95 | 1015.8 |
| 20260906035431 | 59 | 80 | 0.0 | 0.0 | 0.00 | 0.11 | 0.09 | 94 | 1015.8 |
| 20260906034400 | 59 | 80 | 0.0 | 0.0 | 0.00 | 0.11 | 0.09 | 94 | 1015.8 |
| 20260906033359 | 60 | 80 | 0.0 | 0.0 | 0.00 | 0.11 | 0.09 | 94 | 1015.5 |
| 20260906032358 | 60 | 80 | 0.0 | 0.0 | 0.00 | 0.11 | 0.09 | 93 | 1015.8 |
| 20260906031357 | 60 | 80 | 0.0 | 0.0 | 0.00 | 0.11 | 0.09 | 93 | 1015.8 |
| 20260906030354 | 60 | 80 | 0.0 | 0.0 | 0.00 | 0.11 | 0.09 | 94 | 1015.8 |
| 20260906025353 | 60 | 80 | 0.0 | 2.0 | 0.00 | 0.11 | 0.09 | 93 | 1015.5 |
| 20260906024352 | 60 | 80 | 0.0 | 2.0 | 0.00 | 0.11 | 0.09 | 92 | 1015.4 |
| 20260906023351 | 61 | 80 | 1.0 | 1.0 | 0.00 | 0.11 | 0.09 | 92 | 1015.4 |
| 20260906022319 | 61 | 80 | 0.0 | 2.0 | 0.00 | 0.11 | 0.09 | 91 | 1015.4 |
| 20260906021318 | 61 | 80 | 0.0 | 2.0 | 0.00 | 0.11 | 0.09 | 90 | 1015.1 |
| 20260906020317 | 62 | 80 | 2.0 | 2.0 | 0.00 | 0.11 | 0.09 | 90 | 1015.1 |
| 20260906015316 | 62 | 80 | 0.0 | 0.0 | 0.00 | 0.11 | 0.09 | 88 | 1015.1 |
| 20260906014315 | 63 | 80 | 0.0 | 0.0 | 0.00 | 0.11 | 0.09 | 87 | 1015.1 |
| 20260906013314 | 63 | 80 | 0.0 | 0.0 | 0.00 | 0.11 | 0.09 | 86 | 1015.1 |
| 20260906012314 | 64 | 80 | 0.0 | 2.0 | 0.00 | 0.11 | 0.09 | 85 | 1014.8 |
| 20260906011313 | 64 | 80 | 0.0 | 2.0 | 0.00 | 0.11 | 0.09 | 84 | 1014.8 |
| 20260906010312 | 64 | 85 | 2.0 | 2.0 | 0.00 | 0.11 | 0.09 | 83 | 1014.8 |
| 20260906005310 | 65 | 85 | 0.0 | 0.0 | 0.00 | 0.11 | 0.09 | 82 | 1014.8 |
| 20260906004310 | 66 | 85 | 0.0 | 0.0 | 0.00 | 0.11 | 0.09 | 82 | 1014.8 |
| 20260906003238 | 67 | 85 | 0.0 | 0.0 | 0.00 | 0.11 | 0.09 | 80 | 1014.8 |
| 20260906002237 | 68 | 85 | 0.0 | 1.0 | 0.00 | 0.11 | 0.09 | 79 | 1014.9 |
| 20260906001236 | 69 | 85 | 0.0 | 2.0 | 0.00 | 0.11 | 0.09 | 75 | 1014.9 |
| 20260906000205 | 69 | 85 | 2.0 | 3.0 | 0.00 | 0.11 | 0.09 | 74 | 1014.9 |
| 20260905235204 | 70 | 85 | 0.0 | 4.0 | 0.00 | 0.11 | 0.09 | 72 | 1014.6 |
| 20260905234203 | 71 | 93 | 2.0 | 4.0 | 0.00 | 0.11 | 0.09 | 71 | 1014.6 |
| 20260905233202 | 71 | 110 | 2.0 | 6.0 | 0.00 | 0.11 | 0.09 | 73 | 1014.6 |
| 20260905232201 | 71 | 96 | 2.0 | 6.0 | 0.00 | 0.11 | 0.09 | 74 | 1014.6 |
| 20260905231200 | 71 | 72 | 2.0 | 8.0 | 0.00 | 0.11 | 0.09 | 74 | 1014.6 |
| 20260905230200 | 71 | 80 | 1.0 | 9.0 | 0.00 | 0.11 | 0.09 | 75 | 1014.3 |
| 20260905225159 | 72 | 58 | 3.0 | 9.0 | 0.00 | 0.11 | 0.09 | 73 | 1014.3 |
| 20260905224158 | 72 | 66 | 4.0 | 8.0 | 0.00 | 0.11 | 0.09 | 74 | 1014.3 |
| 20260905223126 | 73 | 66 | 4.0 | 11.0 | 0.00 | 0.11 | 0.09 | 73 | 1014.0 |
| 20260905222125 | 74 | 74 | 4.0 | 11.0 | 0.00 | 0.11 | 0.09 | 70 | 1014.0 |
| 20260905221125 | 74 | 81 | 4.0 | 12.0 | 0.00 | 0.11 | 0.09 | 70 | 1014.0 |
| 20260905220124 | 74 | 81 | 4.0 | 12.0 | 0.00 | 0.11 | 0.09 | 70 | 1014.0 |
| 20260905215123 | 73 | 68 | 4.0 | 10.0 | 0.00 | 0.11 | 0.09 | 73 | 1013.7 |
| 20260905214122 | 73 | 75 | 6.0 | 10.0 | 0.00 | 0.11 | 0.09 | 73 | 1013.7 |
| 20260905213121 | 73 | 57 | 6.0 | 12.0 | 0.00 | 0.11 | 0.09 | 73 | 1013.7 |
| 20260905212120 | 74 | 69 | 5.0 | 12.0 | 0.00 | 0.11 | 0.09 | 73 | 1013.7 |
| 20260905211120 | 75 | 82 | 3.0 | 13.0 | 0.00 | 0.11 | 0.09 | 72 | 1013.7 |
| 20260905210119 | 74 | 83 | 4.0 | 13.0 | 0.00 | 0.11 | 0.09 | 74 | 1013.7 |
| 20260905205047 | 74 | 79 | 7.0 | 11.0 | 0.00 | 0.11 | 0.09 | 72 | 1013.7 |
| 20260905204045 | 75 | 74 | 4.0 | 12.0 | 0.00 | 0.11 | 0.09 | 74 | 1013.7 |
| 20260905203045 | 76 | 62 | 4.0 | 12.0 | 0.00 | 0.11 | 0.09 | 72 | 1013.7 |
| 20260905202044 | 76 | 57 | 3.0 | 11.0 | 0.00 | 0.11 | 0.09 | 73 | 1013.8 |
| 20260905201044 | 76 | 63 | 6.0 | 11.0 | 0.00 | 0.11 | 0.09 | 75 | 1013.8 |
| 20260905200043 | 76 | 86 | 3.0 | 10.0 | 0.00 | 0.11 | 0.09 | 76 | 1014.1 |
| 20260905195042 | 76 | 74 | 5.0 | 9.0 | 0.00 | 0.11 | 0.09 | 77 | 1013.8 |
| 20260905194041 | 76 | 64 | 5.0 | 10.0 | 0.00 | 0.11 | 0.09 | 77 | 1013.8 |
| 20260905193041 | 77 | 74 | 5.0 | 10.0 | 0.00 | 0.11 | 0.09 | 77 | 1013.8 |
| 20260905192040 | 77 | 77 | 5.0 | 10.0 | 0.00 | 0.11 | 0.09 | 78 | 1013.8 |
| 20260905191008 | 77 | 81 | 2.0 | 10.0 | 0.00 | 0.11 | 0.09 | 78 | 1013.8 |
| 20260905190007 | 78 | 69 | 3.0 | 9.0 | 0.00 | 0.11 | 0.09 | 79 | 1013.9 |
| 20260905185007 | 79 | 77 | 4.0 | 9.0 | 0.00 | 0.11 | 0.09 | 77 | 1013.9 |
| 20260905184006 | 79 | 71 | 4.0 | 11.0 | 0.00 | 0.11 | 0.09 | 80 | 1013.9 |
| 20260905183005 | 77 | 93 | 3.0 | 12.0 | 0.00 | 0.11 | 0.09 | 80 | 1013.9 |
| 20260905181902 | 77 | 105 | 4.0 | 12.0 | 0.00 | 0.11 | 0.09 | 82 | 1014.2 |
| 20260905180901 | 77 | 92 | 5.0 | 11.0 | 0.00 | 0.11 | 0.09 | 82 | 1014.2 |
| 20260905175900 | 77 | 86 | 4.0 | 10.0 | 0.00 | 0.11 | 0.09 | 84 | 1014.2 |
| 20260905174859 | 77 | 102 | 3.0 | 9.0 | 0.00 | 0.12 | 0.09 | 84 | 1014.2 |
| 20260905173858 | 76 | 73 | 3.0 | 11.0 | 0.00 | 0.12 | 0.09 | 85 | 1014.2 |
| 20260905172858 | 75 | 92 | 5.0 | 11.0 | 0.00 | 0.13 | 0.09 | 87 | 1014.2 |
| 20260905171826 | 75 | 88 | 4.0 | 10.0 | 0.00 | 0.13 | 0.09 | 87 | 1014.2 |
| 20260905170825 | 75 | 97 | 4.0 | 12.0 | 0.00 | 0.13 | 0.09 | 88 | 1014.2 |
| 20260905165815 | 76 | 77 | 4.0 | 10.0 | 0.00 | 0.13 | 0.09 | 85 | 1014.2 |
| 20260905164815 | 77 | 76 | 2.0 | 7.0 | 0.00 | 0.13 | 0.09 | 84 | 1014.2 |
| 20260905163814 | 77 | 67 | 3.0 | 6.0 | 0.00 | 0.13 | 0.09 | 84 | 1014.2 |
| 20260905162813 | 77 | 54 | 2.0 | 5.0 | 0.00 | 0.13 | 0.09 | 84 | 1014.2 |
| 20260905161812 | 77 | 136 | 1.0 | 4.0 | 0.00 | 0.13 | 0.09 | 83 | 1014.6 |
| 20260905160811 | 77 | 61 | 2.0 | 3.0 | 0.00 | 0.13 | 0.09 | 86 | 1014.2 |
| 20260905155810 | 76 | 138 | 2.0 | 2.0 | 0.00 | 0.14 | 0.09 | 86 | 1014.5 |
| 20260905154809 | 77 | 153 | 0.0 | 2.0 | 0.00 | 0.14 | 0.09 | 85 | 1014.5 |
| 20260905153809 | 77 | 86 | 1.0 | 2.0 | 0.00 | 0.14 | 0.09 | 84 | 1014.5 |
| 20260905152808 | 77 | 108 | 1.0 | 3.0 | 0.00 | 0.17 | 0.09 | 84 | 1014.5 |
| 20260905151808 | 76 | 101 | 1.0 | 3.0 | 0.00 | 0.23 | 0.09 | 85 | 1014.5 |
| 20260905150807 | 76 | 94 | 1.0 | 2.0 | 0.00 | 0.33 | 0.09 | 86 | 1014.2 |
| 20260905145806 | 75 | 207 | 1.0 | 3.0 | 0.00 | 0.33 | 0.09 | 87 | 1014.1 |
| 20260905144805 | 75 | 187 | 2.0 | 3.0 | 0.00 | 0.33 | 0.09 | 90 | 1014.1 |
| 20260905143805 | 74 | 157 | 1.0 | 2.0 | 0.00 | 0.33 | 0.09 | 89 | 1014.1 |
| 20260905142804 | 74 | 110 | 0.0 | 2.0 | 0.00 | 0.33 | 0.09 | 90 | 1014.1 |
| 20260905141803 | 74 | 150 | 0.0 | 2.0 | 0.00 | 0.33 | 0.09 | 91 | 1014.1 |
| 20260905140802 | 74 | 206 | 2.0 | 3.0 | 0.00 | 0.33 | 0.09 | 91 | 1013.8 |
| 20260905135801 | 74 | 206 | 1.0 | 4.0 | 0.00 | 0.33 | 0.09 | 91 | 1013.8 |
| 20260905134801 | 73 | 189 | 1.0 | 3.0 | 0.00 | 0.34 | 0.09 | 92 | 1013.8 |
| 20260905133800 | 73 | 127 | 1.0 | 2.0 | 0.00 | 0.36 | 0.09 | 94 | 1013.8 |